sat.trackr.live / text

‹ back to catalog

STARLINK-31717

NORAD 59385 · 2024-062M

PAYLOAD ACTIVE UNKNOWN

§ Identity

Operator
Country
US
Launch date
2024-04-02
Launch site
AFWTR
Launch vehicle
Mass (kg)
RCS (m²)

Purposes: comms

External: N2YO · Heavens-Above · Gunter

§ Orbital elements

Epoch: 2026-09-20T19:38:06.139968Z

Period
93.85 min
Inclination
53.1585°
Eccentricity
0.0001170
Mean motion
15.34385030 rev/d
Perigee alt
461.9 km
Apogee alt
463.5 km
Semi-major
6,840.9 km
B*
9.8885e-5
RAAN
65.9631°
Arg perigee
94.6497°
Mean anomaly
265.4639°
Rev number
13,958

§ Raw data

STARLINK-317171 59385U 24062M   26263.81812662  .00002965  00000+0  98885-4 0  99902 59385  53.1585  65.9631 0001170  94.6497 265.4639 15.34385030139580

JSON: /api/v1/satellites/59385 · /tle

For live sub-satellite position, see the globe view (requires WebGL).

§ Visibility from observer

Set your observer location to see the next 7 days of passes ≥ 10°. The values pass through the URL so the page stays shareable.

No JS? Fill the form by hand. The geolocation button needs JavaScript.